Hourly Data Report for June 23, 2003

All times are specified in Local Standard Time (LST). Add 1 hour to adjust for Daylight Saving Time where and when it is observed.

TORONTO CITY
ONTARIO

43°40'00.000" N
79°24'00.000" W
112.50 m
6158355
71508
XTO

Download Data

Hourly Data (June 2003)
Hourly Data Report for June 23, 2003
TIME Temp Definition
°C
Dew Point Definition
°C
Rel Hum Definition
%
Wind Dir Definition
10's deg

Wind Spd Definition
km/h
Visibility Definition
km
Stn Press Definition
kPa
Hmdx Definition


Wind Chill Definition


Weather Definition


00:00 20.1 7.9 45 LegendMM LegendMM LegendMM 99.76     LegendNANA
01:00 19.2 8.1 49 LegendMM LegendMM LegendMM 99.77     LegendNANA
02:00 18.3 7.5 49 LegendMM LegendMM LegendMM 99.76     LegendNANA
03:00 17.6 7.3 51 LegendMM LegendMM LegendMM 99.77     LegendNANA
04:00 19.7 7.3 45 LegendMM LegendMM LegendMM 99.76     LegendNANA
05:00 19.8 7.5 45 LegendMM LegendMM LegendMM 99.85     LegendNANA
06:00 19.6 8.5 49 LegendMM LegendMM LegendMM 99.91     LegendNANA
07:00 21.1 9.8 48 LegendMM LegendMM LegendMM 99.95     LegendNANA
08:00 23.9 11.3 45 LegendMM LegendMM LegendMM 99.94 26   LegendNANA
09:00 24.9 11.4 43 LegendMM LegendMM LegendMM 99.98 27   LegendNANA
10:00 26.8 11.5 38 LegendMM LegendMM LegendMM 99.96 29   LegendNANA
11:00 28.2 12.1 37 LegendMM LegendMM LegendMM 99.97 31   LegendNANA
12:00 29.0 13.3 38 LegendMM LegendMM LegendMM 99.98 32   LegendNANA
13:00
14:00
15:00 29.3 13.0 37 LegendMM LegendMM LegendMM 99.90 32   LegendNANA
16:00 29.6 13.1 36 LegendMM LegendMM LegendMM 99.90 32   LegendNANA
17:00 29.0 12.3 36 LegendMM LegendMM LegendMM 99.89 31   LegendNANA
18:00 27.8 12.5 39 LegendMM LegendMM LegendMM 99.93 30   LegendNANA
19:00 26.4 15.3 50 LegendMM LegendMM LegendMM 99.93 31   LegendNANA
20:00 24.6 14.8 54 LegendMM LegendMM LegendMM 99.94 28   LegendNANA
21:00 23.2 15.3 61 LegendMM LegendMM LegendMM 100.02 27   LegendNANA
22:00
23:00 23.8 13.8 54 LegendMM LegendMM LegendMM 100.13 27   LegendNANA

Notes on Data Quality.

Legend

  • E = Estimated
  • M = Missing
  • NA = Not Available
Date modified: